Regional Weather Roundup
Issued by NWS State College, PA

Home | Current Version | Previous Version | Graphics & Text | Print | Product List | Glossary Off
Versions: 1 2 3 4 5 6 7 8 9 10 11 12 13 14 15 16 17 18 19 20 21 22 23 24 25 26 27 28 29 30 31 32 33 34 35 36 37 38 39 40 41 42 43 44 45 46 47 48 49 50

000
ASUS41 KCTP 250110
RWRCTP

REGIONAL WEATHER ROUNDUP
NATIONAL WEATHER SERVICE STATE COLLEGE PA
900 PM EDT TUE MAY 24 2016

Note: "fair" indicates few or no clouds below 12,000 feet with no
significant weather and/or obstructions to visibility.

* = STATION THAT DOES NOT REPORT PRECIPITATION /E.G. RAIN...SNOW...ETC/
    THUNDER OR FOG.

PAZ002>004-007>009-013>016-020>023-029>032-250200-
WESTERN PENNSYLVANIA

CITY           SKY/WX    TMP DP  RH WIND       PRES   REMARKS
ERIE           CLOUDY    68  40  35 CALM      30.03R
MEADVILLE      CLEAR     67  37  33 W3        30.07R
FRANKLIN*      CLEAR     66  39  37 NW3       30.09R
NEW CASTLE     FAIR      66  51  58 SW3       30.06R
BEAVER COUNTY  CLEAR     70  46  43 SW6       30.07
BUTLER*        CLEAR     68  46  45 CALM      30.09S
PITTSBURGH INT MOCLDY    73  47  39 W5        30.07R
PITTSBURGH     PTCLDY    72  47  40 W7        30.06R
INDIANA*       CLEAR     70  48  46 CALM      30.10R
LATROBE        PTCLDY    68  50  52 SW7       30.07R
WASHINGTON CO* CLEAR     63  54  72 CALM      30.09R
$$

PAZ004>006-010>012-017>019-024>028-033>037-041-042-045-046-049>053-250200-
CENTRAL PENNSYLVANIA

CITY           SKY/WX    TMP DP  RH WIND       PRES   REMARKS
BRADFORD       CLEAR     64  34  32 W3        30.08R
DUBOIS         CLEAR     67  40  37 NW7       30.06R
CLEARFIELD     CLEAR     66  43  43 NW3       30.05R
JOHNSTOWN      CLEAR     66  41  40 W6        30.09R
ALTOONA        CLEAR     68  44  42 W3        30.06R
STATE COLLEGE  CLEAR     70  43  37 SW7       30.02R
WILLIAMSPORT   CLEAR     68  43  40 CALM      29.96R
SELINSGROVE    CLEAR     64  53  67 CALM      29.97R
FT INDIANTOWN  CLEAR     74  47  38 W7        29.97R
CAPITAL CITY   CLEAR     74  45  35 W8        29.97R
HARRISBURG     PTCLDY    71  49  45 NW6       29.96R
YORK           CLEAR     69  48  47 W3        29.99R
$$

PAZ038>040-043-044-047-048-054-055-060>062-067>071-250200-
EASTERN PENNSYLVANIA

CITY           SKY/WX    TMP DP  RH WIND       PRES   REMARKS
SCRANTON       CLEAR     65  45  48 CALM      29.96R
MOUNT POCONO   CLEAR     51  48  89 E3        30.01R
ALLENTOWN      CLEAR     65  54  67 E7        29.95R
QUAKERTOWN*    CLEAR     70  55  60 CALM      29.97R
READING        CLEAR     73  47  39 W5        29.94R
LANCASTER      CLEAR     68  49  50 W7        29.96R
COATESVILLE    CLEAR     72  46  40 W6        29.98S
POTTSTOWN      PTCLDY    74  47  38 CALM      29.96R
BLUE BELL      CLOUDY    70  50  49 CALM      29.94R
DOYLESTOWN     CLEAR     68  53  58 CALM      29.95R
WILLOW GROVE   NOT AVBL
NORTH PHILA    CLOUDY    69  55  60 CALM      29.96R
PHILADELPHIA   CLOUDY    78  47  33 W9        29.94R
$$



USA.gov is the U.S. government's official web portal to all federal, state and local government web resources and services.